Date String (YYYY-MM-DD hh:mm:ss) UTC,Instrument flags,Ambient pressure (hPa),Sample flow (lpm),Bypass flow (lpm),Sample temperature (°C),Ambient temperature (°C),ASC tube jacket temperature (°C),LED temperature (°C),Box temperature (°C),Sample RH (%),Span deviation,Mass concentration (μg/m³),Mass concentration (μg/m³),Mass concentration (μg/m³)
DateTimeUTC,F1_M11,P_M11,Q1_M11,Q2_M11,T1_M11,T2_M11,T3_M11,T4_M11,T5_M11,U1_M11,ZSPAN_M11,X0_M11,X2_M11,X1_M11
2023-04-07 04:00:00,,0835.2,5.00,0.00,22.0,20.1,00.0,30.5,23.4,08.3,0000.0,0010.75,0003.82,0003.07
2023-04-07 04:01:00,,0835.2,4.98,0.00,21.9,20.1,00.0,30.5,23.4,08.3,0000.0,0010.95,0003.83,0003.08
2023-04-07 04:02:00,,0835.2,5.00,0.00,21.9,20.0,00.0,30.4,23.3,08.3,0000.0,0010.93,0003.85,0003.09
2023-04-07 04:03:00,,0835.3,5.01,0.00,21.9,20.0,00.0,30.4,23.2,08.3,0000.0,0011.23,0003.82,0003.09
2023-04-07 04:04:00,,0835.2,5.00,0.00,21.9,20.5,00.0,30.4,23.5,08.5,0000.0,0011.17,0003.84,0003.09
2023-04-07 04:05:00,,0835.2,5.00,0.00,22.0,21.7,00.0,30.3,24.0,09.0,0000.0,0011.05,0003.81,0003.08
2023-04-07 04:06:00,,0835.3,4.99,0.00,22.2,22.7,00.0,30.3,24.3,08.8,0000.0,0011.46,0003.83,0003.08
2023-04-07 04:07:00,,0835.3,4.99,0.00,22.3,22.6,00.0,30.4,24.2,08.7,0000.0,0011.37,0003.86,0003.06
2023-04-07 04:08:00,,0835.3,4.99,0.00,22.3,22.3,00.0,30.5,24.0,09.0,0000.0,0011.13,0003.82,0003.04
2023-04-07 04:09:00,,0835.3,5.00,0.00,22.2,21.9,00.0,30.5,23.9,09.0,0000.0,0010.86,0003.79,0003.03
2023-04-07 04:10:00,,0835.3,4.99,0.00,22.2,21.6,00.0,30.5,23.8,08.8,0000.0,0010.50,0003.78,0003.01
2023-04-07 04:11:00,,0835.3,5.01,0.00,22.2,21.3,00.0,30.5,23.7,08.8,0000.0,0010.40,0003.77,0003.00
2023-04-07 04:12:00,,0835.3,5.01,0.00,22.1,21.0,00.0,30.5,23.6,08.9,0000.0,0010.95,0003.76,0002.99
2023-04-07 04:13:00,,0835.3,4.99,0.00,22.1,20.8,00.0,30.5,23.6,08.7,0000.0,0010.07,0003.72,0002.98
2023-04-07 04:14:00,,0835.3,5.00,0.00,22.1,20.7,00.0,30.5,23.6,09.3,0000.0,0009.68,0003.71,0002.97
2023-04-07 04:15:00,,0835.3,5.01,0.00,22.1,20.5,00.0,30.5,23.5,09.1,0000.0,0009.09,0003.72,0002.97
2023-04-07 04:16:00,,0835.3,5.01,0.00,22.0,20.3,00.0,30.5,23.5,08.9,0000.0,0009.39,0003.77,0002.97
2023-04-07 04:17:00,,0835.3,5.01,0.00,22.0,20.2,00.0,30.5,23.4,09.2,0000.0,0009.29,0003.79,0002.97
2023-04-07 04:18:00,,0835.3,5.00,0.00,22.0,20.1,00.0,30.5,23.4,08.8,0000.0,0009.06,0003.78,0002.97
2023-04-07 04:19:00,,0835.3,5.00,0.00,22.0,20.1,00.0,30.5,23.3,09.2,0000.0,0008.77,0003.81,0002.97
2023-04-07 04:20:00,,0835.2,5.01,0.00,21.9,20.0,00.0,30.4,23.3,09.2,0000.0,0008.94,0003.80,0002.96
2023-04-07 04:21:00,,0835.3,5.01,0.00,21.9,20.0,00.0,30.4,23.2,09.0,0000.0,0008.85,0003.78,0002.96
2023-04-07 04:22:00,,0835.3,5.01,0.00,21.9,20.5,00.0,30.4,23.5,09.3,0000.0,0008.84,0003.79,0002.96
2023-04-07 04:23:00,,0835.3,5.01,0.00,22.0,21.6,00.0,30.3,23.9,09.6,0000.0,0008.31,0003.80,0002.94
2023-04-07 04:24:00,,0835.3,5.00,0.00,22.2,22.6,00.0,30.3,24.3,09.3,0000.0,0008.44,0003.79,0002.94
2023-04-07 04:25:00,,0835.3,5.00,0.00,22.3,22.6,00.0,30.4,24.1,09.0,0000.0,0008.48,0003.79,0002.93
2023-04-07 04:26:00,,0835.3,4.99,0.00,22.2,22.2,00.0,30.5,23.9,08.8,0000.0,0008.61,0003.81,0002.94
2023-04-07 04:27:00,,0835.3,5.00,0.00,22.2,21.8,00.0,30.5,23.8,09.0,0000.0,0008.72,0003.79,0002.93
2023-04-07 04:28:00,,0835.3,5.00,0.00,22.2,21.5,00.0,30.5,23.7,09.0,0000.0,0008.94,0003.76,0002.90
2023-04-07 04:29:00,,0835.2,4.99,0.00,22.2,21.2,00.0,30.5,23.7,09.0,0000.0,0009.01,0003.77,0002.91
2023-04-07 04:30:00,,0835.2,5.01,0.00,22.2,21.0,00.0,30.5,23.6,08.9,0000.0,0008.88,0003.74,0002.91
2023-04-07 04:31:00,,0835.2,5.00,0.00,22.1,20.8,00.0,30.5,23.6,08.9,0000.0,0008.68,0003.73,0002.92
2023-04-07 04:32:00,,0835.2,5.00,0.00,22.1,20.6,00.0,30.5,23.5,08.9,0000.0,0008.76,0003.71,0002.91
2023-04-07 04:33:00,,0835.2,5.00,0.00,22.1,20.5,00.0,30.5,23.5,08.9,0000.0,0008.80,0003.71,0002.90
2023-04-07 04:34:00,,0835.2,5.01,0.00,22.0,20.3,00.0,30.5,23.4,08.9,0000.0,0008.77,0003.70,0002.90
2023-04-07 04:35:00,,0835.3,5.00,0.00,22.0,20.2,00.0,30.5,23.4,08.9,0000.0,0008.72,0003.72,0002.89
2023-04-07 04:36:00,,0835.2,5.00,0.00,22.0,20.2,00.0,30.5,23.4,08.9,0000.0,0008.83,0003.75,0002.91
2023-04-07 04:37:00,,0835.3,4.99,0.00,21.9,20.1,00.0,30.4,23.3,09.0,0000.0,0008.70,0003.74,0002.94
2023-04-07 04:38:00,,0835.3,5.01,0.00,21.9,20.1,00.0,30.4,23.3,09.1,0000.0,0008.42,0003.70,0002.96
2023-04-07 04:39:00,,0835.3,5.00,0.00,21.9,20.0,00.0,30.4,23.3,09.2,0000.0,0008.37,0003.74,0002.99
2023-04-07 04:40:00,,0835.2,5.00,0.00,21.9,20.4,00.0,30.4,23.4,09.0,0000.0,0008.32,0003.76,0003.03
2023-04-07 04:41:00,,0835.2,5.00,0.00,22.0,21.5,00.0,30.3,23.9,08.8,0000.0,0009.09,0003.79,0003.04
2023-04-07 04:42:00,,0835.2,5.00,0.00,22.2,22.6,00.0,30.3,24.3,08.8,0000.0,0009.65,0003.82,0003.05
2023-04-07 04:43:00,,0835.3,4.99,0.00,22.3,22.8,00.0,30.4,24.2,08.6,0000.0,0009.70,0003.88,0003.08
2023-04-07 04:44:00,,0835.2,5.00,0.00,22.3,22.4,00.0,30.5,24.0,08.5,0000.0,0009.60,0003.88,0003.10
2023-04-07 04:45:00,,0835.2,5.02,0.00,22.3,22.0,00.0,30.5,23.9,08.5,0000.0,0009.54,0003.89,0003.10
2023-04-07 04:46:00,,0835.2,4.99,0.00,22.2,21.6,00.0,30.5,23.8,08.5,0000.0,0009.70,0003.95,0003.11
2023-04-07 04:47:00,,0835.3,5.00,0.00,22.2,21.3,00.0,30.5,23.7,09.0,0000.0,0009.46,0003.94,0003.12
2023-04-07 04:48:00,,0835.3,5.00,0.00,22.2,21.1,00.0,30.5,23.7,09.1,0000.0,0009.41,0003.92,0003.11
2023-04-07 04:49:00,,0835.3,5.00,0.00,22.2,21.0,00.0,30.5,23.7,08.5,0000.0,0009.29,0003.90,0003.10
2023-04-07 04:50:00,,0835.3,5.00,0.00,22.2,20.8,00.0,30.5,23.7,08.9,0000.0,0008.75,0003.87,0003.09
2023-04-07 04:51:00,,0835.2,4.99,0.00,22.2,20.8,00.0,30.5,23.7,09.2,0000.0,0008.55,0003.81,0003.07
2023-04-07 04:52:00,,0835.2,5.00,0.00,22.2,20.7,00.0,30.5,23.7,09.0,0000.0,0008.38,0003.80,0003.06
2023-04-07 04:53:00,,0835.2,5.00,0.00,22.1,20.5,00.0,30.5,23.6,09.0,0000.0,0007.61,0003.78,0003.05
2023-04-07 04:54:00,,0835.2,5.01,0.00,22.1,20.4,00.0,30.5,23.6,08.9,0000.0,0008.00,0003.78,0003.05
2023-04-07 04:55:00,,0835.1,5.01,0.00,22.1,20.3,00.0,30.5,23.5,09.1,0000.0,0008.04,0003.81,0003.05
2023-04-07 04:56:00,,0835.1,5.00,0.00,22.1,20.3,00.0,30.5,23.5,08.9,0000.0,0007.99,0003.79,0003.03
2023-04-07 04:57:00,,0835.2,5.00,0.00,22.1,20.2,00.0,30.5,23.5,08.9,0000.0,0007.92,0003.75,0003.03
2023-04-07 04:58:00,,0835.2,5.00,0.00,22.0,20.2,00.0,30.5,23.4,08.8,0000.0,0007.85,0003.73,0003.03
2023-04-07 04:59:00,,0835.1,4.99,0.00,22.0,20.1,00.0,30.5,23.4,08.8,0000.0,,,
